Regional Weather Roundup
Issued by NWS Cleveland, OH

Home | Current Version | Previous Version | Text Only | Print | Product List | Glossary Off
Versions: 1 2 3 4 5 6 7 8 9 10 11 12 13 14 15 16 17 18 19 20 21 22 23 24 25 26 27 28 29 30 31 32 33 34 35 36 37 38 39 40 41 42 43 44 45 46 47 48 49 50

000
ASUS41 KCLE 230912
RWRCLE
OHIO REGIONAL WEATHER ROUNDUP
NATIONAL WEATHER SERVICE WILMINGTON, OH
500 AM EDT SUN JUL 23 2017

NOTE: "FAIR" INDICATES FEW OR NO CLOUDS BELOW 12,000 FEET WITH NO
SIGNIFICANT WEATHER AND/OR OBSTRUCTIONS TO VISIBILITY.

OHZ001>008-015>018-024>027-034-035-043-044-231000-
   NORTHWEST OHIO

CITY           SKY/WX    TMP DP  RH WIND       PRES   REMARKS
DEFIANCE       FAIR     N/A N/A N/A CALM      29.80R
FINDLAY        FAIR      69  66  90 CALM      29.78F
TOLEDO EXPRESS CLOUDY    68  68 100 W3        29.79R
TOLEDO EXEC    FAIR      72  69  90 CALM      29.79R
LIMA           FAIR      68  68 100 CALM      29.80S
$$

OHZ009>014-019>023-028>033-038-089-231000-
   NORTHEAST OHIO

CITY           SKY/WX    TMP DP  RH WIND       PRES   REMARKS
CLE-HOPKINS    CLOUDY    75  71  87 SW7       29.78S
CLE-LAKEFRONT  CLOUDY    76  72  87 W8        29.75R
CUY CO. ARPT   NOT AVBL
LORAIN-ELYRIA  MOCLDY    71  66  84 CALM      29.78S
ASHTABULA      CLOUDY    73  73 100 W6        29.76R
AKRON-CANTON   CLOUDY    73  69  87 W3        29.80S
WOOSTER        CLOUDY    70  69  97 CALM      29.80F
MANSFIELD      MOCLDY    72  71  97 W5        29.81F
YOUNGSTOWN     MOCLDY    71  69  93 SW6       29.78R
$$

OHZ042-051>053-060>062-070>072-077>081-231000-
  SOUTHWEST OHIO

CITY           SKY/WX    TMP DP  RH WIND       PRES   REMARKS
CINC-COVINGTON TSTM      73  73 100 S17       29.82F
CINC-LUNKEN    LGT RAIN  72 N/A N/A VRB5      29.82S
HAMILTON       CLOUDY    73  73 100 CALM      29.82F
DAYTON         CLOUDY    74  72  93 SW8       29.82R
WRIGHT-PAT AFB MOCLDY    74  74 100 SW9       29.79S
DAYTON GENERAL MOCLDY    72  70  93 SW7       29.81R
WILMINGTON     FAIR      71  71 100 SW7       29.79F
$$

OHZ036-037-039>041-045>050-054>059-063>069-073>076-082>088-231000-
  CENTRAL AND SOUTHEAST OHIO

CITY           SKY/WX    TMP DP  RH WIND       PRES   REMARKS
COLUMBUS       CLOUDY    75  73  93 CALM      29.78F
OSU AIRPORT    MOCLDY    74  73  97 CALM      29.79F
BOLTON FIELD   FAIR      73  73  99 W3        29.80S FOG
RICKENBACK AFB FAIR      73  73 100 SW5       29.78F
NEWARK         MOCLDY    73  71  93 CALM      29.79F
MARION         MOCLDY    72  69  90 NW5       29.80F
LANCASTER      FAIR      71  71 100 S5        29.80F
ZANESVILLE     CLOUDY    71  69  93 CALM      29.80F
NEW PHILLY     MOCLDY    71  71 100 CALM      29.80S FOG
$$




USA.gov is the U.S. government's official web portal to all federal, state and local government web resources and services.